Beach, ND

11:49 PM MDT on October 17, 2017 (GMT -0600)
Beach

Weather History for K20U - October, 2012

Change the Weather History Date:

Sunday, October 7, 2012

  Actual Average (KGDV) Record (KGDV)
Temperature  
Mean Temperature 42 °F -  
Max Temperature 57 °F 60 °F 84 °F (2003)
Min Temperature 28 °F 34 °F 12 °F (2000)
Degree Days  
Heating Degree Days 22    
Moisture  
Dew Point 28 °F    
Average Humidity 56    
Maximum Humidity 75    
Minimum Humidity 36    
Precipitation  
Precipitation 0.00 in - - ()
Sea Level Pressure  
Sea Level Pressure 29.91 in    
Wind  
Wind Speed 13 mph (West)    
Max Wind Speed 18 mph    
Max Gust Speed 25 mph    
Visibility 10 miles    
Events      
Averages and records for this station are not official NWS values.
T = Trace of Precipitation, MM = Missing Value Source: NWS Daily Summary

Daily Weather History Graph

Daily Weather History Graph

Search for Another Location

Airport or City:

Trip Planner

Search our weather history database for the weather conditions in past years. The results will help you decide how hot, cold, wet, or windy it might be!

Date:

Astronomy

Oct. 07, 2012 Rise Set
Actual Time 7:03 AM MDT 6:22 PM MDT
Civil Twilight 6:33 AM MDT 6:53 PM MDT
Nautical Twilight 5:57 AM MDT 7:28 PM MDT
Astronomical Twilight 5:22 AM MDT 8:03 PM MDT
Moon 11:21 PM MDT (10/7) 1:57 PM MDT (10/7)
Length of Visible Light 12h 19m
Length of Day
11h 19m
Waning Gibbous, 55% of the Moon is Illuminated
Oct 7
Waning Gibbous
Oct 8
Last Quarter
Oct 15
New
Oct 21
First Quarter
Oct 29
Full

Hourly Weather History & Observations

Time (MDT) Temp. Windchill Dew Point Humidity Pressure Visibility Wind Dir Wind Speed Gust Speed Precip Events Conditions
12:15 AM 32.0 °F 22.5 °F 19.4 °F 60% 30.08 in 10.0 mi SW 12.7 mph - N/A   Clear
12:35 AM 32.0 °F 22.5 °F 19.4 °F 60% 30.07 in 10.0 mi SW 12.7 mph - N/A   Clear
12:55 AM 32.0 °F 23.6 °F 19.4 °F 60% 30.06 in 10.0 mi SW 10.4 mph - N/A   Clear
1:15 AM 32.0 °F 23.0 °F 19.4 °F 60% 30.06 in 10.0 mi SW 11.5 mph - N/A   Clear
1:35 AM 32.0 °F 22.5 °F 19.4 °F 60% 30.06 in 10.0 mi SW 12.7 mph - N/A   Clear
1:55 AM 30.2 °F 20.8 °F 19.4 °F 64% 30.06 in 10.0 mi WSW 11.5 mph - N/A   Clear
2:15 AM 28.4 °F 19.1 °F 19.4 °F 69% 30.05 in 10.0 mi WSW 10.4 mph - N/A   Clear
2:35 AM 30.2 °F 20.2 °F 19.4 °F 64% 30.04 in 10.0 mi WSW 12.7 mph - N/A   Clear
2:55 AM 30.2 °F 20.2 °F 19.4 °F 64% 30.03 in 10.0 mi WSW 12.7 mph - N/A   Clear
3:15 AM 30.2 °F 19.8 °F 19.4 °F 64% 30.03 in 10.0 mi WSW 13.8 mph - N/A   Clear
3:35 AM 30.2 °F 20.2 °F 19.4 °F 64% 30.02 in 10.0 mi WSW 12.7 mph - N/A   Clear
3:55 AM 28.4 °F 17.5 °F 19.4 °F 69% 30.02 in 10.0 mi WSW 13.8 mph - N/A   Clear
4:15 AM 30.2 °F 20.2 °F 19.4 °F 64% 30.01 in 10.0 mi WSW 12.7 mph - N/A   Clear
4:35 AM 30.2 °F 20.2 °F 21.2 °F 69% 30.01 in 10.0 mi WSW 12.7 mph - N/A   Partly Cloudy
4:55 AM 30.2 °F 20.8 °F 21.2 °F 69% 30.00 in 10.0 mi WSW 11.5 mph - N/A   Clear
5:15 AM 30.2 °F 20.8 °F 21.2 °F 69% 30.00 in 10.0 mi WSW 11.5 mph - N/A   Clear
5:35 AM 32.0 °F 22.5 °F 23.0 °F 69% 29.99 in 10.0 mi WSW 12.7 mph - N/A   Clear
5:55 AM 32.0 °F 23.0 °F 23.0 °F 69% 29.98 in 10.0 mi WSW 11.5 mph - N/A   Clear
6:15 AM 32.0 °F 22.1 °F 23.0 °F 69% 29.98 in 10.0 mi WSW 13.8 mph - N/A   Clear
6:35 AM 32.0 °F 22.1 °F 23.0 °F 69% 29.99 in 10.0 mi West 13.8 mph - N/A   Clear
6:55 AM 32.0 °F 21.6 °F 23.0 °F 69% 29.98 in 10.0 mi West 15.0 mph - N/A   Clear
7:15 AM 32.0 °F 22.5 °F 23.0 °F 69% 29.98 in 10.0 mi WSW 12.7 mph - N/A   Partly Cloudy
7:35 AM 32.0 °F 23.0 °F 24.8 °F 75% 29.97 in 10.0 mi WSW 11.5 mph - N/A   Clear
7:55 AM 32.0 °F 22.1 °F 24.8 °F 75% 29.97 in 10.0 mi WSW 13.8 mph 17.3 mph N/A   Clear
8:15 AM 35.6 °F 26.6 °F 26.6 °F 70% 29.97 in 10.0 mi West 13.8 mph 19.6 mph N/A   Clear
8:35 AM 37.4 °F 27.5 °F 28.4 °F 70% 29.97 in 10.0 mi West 18.4 mph 21.9 mph N/A   Clear
8:55 AM 39.2 °F 32.0 °F 28.4 °F 65% 29.98 in 10.0 mi West 11.5 mph - N/A   Clear
9:15 AM 37.4 °F 28.9 °F 30.2 °F 75% 29.98 in 10.0 mi West 13.8 mph - N/A   Clear
9:35 AM 41.0 °F 33.1 °F 32.0 °F 70% 29.98 in 10.0 mi West 15.0 mph 18.4 mph N/A   Clear
9:55 AM 44.6 °F 37.4 °F 32.0 °F 61% 29.98 in 10.0 mi West 16.1 mph 21.9 mph N/A   Clear
10:15 AM 44.6 °F 38.1 °F 32.0 °F 61% 29.98 in 10.0 mi WNW 13.8 mph 18.4 mph N/A   Clear
10:35 AM 46.4 °F 40.4 °F 32.0 °F 57% 29.97 in 10.0 mi WNW 13.8 mph - N/A   Clear
10:55 AM 46.4 °F 40.1 °F 32.0 °F 57% 29.96 in 10.0 mi WNW 15.0 mph - N/A   Clear
11:35 AM 50.0 °F - 32.0 °F 50% 29.96 in 10.0 mi WNW 15.0 mph - N/A   Clear
11:55 AM 50.0 °F - 32.0 °F 50% 29.95 in 10.0 mi WNW 13.8 mph 21.9 mph N/A   Clear
12:15 PM 51.8 °F - 32.0 °F 47% 29.95 in 10.0 mi West 17.3 mph 23.0 mph N/A   Clear
12:35 PM 50.0 °F - 32.0 °F 50% 29.94 in 10.0 mi NW 15.0 mph 24.2 mph N/A   Partly Cloudy
12:55 PM 53.6 °F - 32.0 °F 44% 29.94 in 10.0 mi WNW 15.0 mph 21.9 mph N/A   Partly Cloudy
1:15 PM 51.8 °F - 32.0 °F 47% 29.92 in 10.0 mi WNW 18.4 mph 21.9 mph N/A   Scattered Clouds
1:35 PM 53.6 °F - 32.0 °F 44% 29.91 in 10.0 mi NW 16.1 mph 23.0 mph N/A   Partly Cloudy
1:55 PM 53.6 °F - 32.0 °F 44% 29.90 in 10.0 mi NW 17.3 mph 25.3 mph N/A   Partly Cloudy
2:15 PM 55.4 °F - 32.0 °F 41% 29.89 in 10.0 mi WNW 15.0 mph 25.3 mph N/A   Clear
2:35 PM 55.4 °F - 32.0 °F 41% 29.88 in 10.0 mi WNW 18.4 mph 25.3 mph N/A   Partly Cloudy
2:55 PM 55.4 °F - 32.0 °F 41% 29.88 in 10.0 mi WNW 17.3 mph - N/A   Clear
3:15 PM 55.4 °F - 32.0 °F 41% 29.88 in 10.0 mi NW 17.3 mph 24.2 mph N/A   Clear
3:35 PM 55.4 °F - 32.0 °F 41% 29.87 in 10.0 mi WNW 16.1 mph 25.3 mph N/A   Mostly Cloudy
3:55 PM 57.2 °F - 30.2 °F 36% 29.86 in 10.0 mi WNW 13.8 mph 23.0 mph N/A   Partly Cloudy
4:15 PM 57.2 °F - 30.2 °F 36% 29.85 in 10.0 mi WNW 12.7 mph - N/A   Clear
4:35 PM 55.4 °F - 30.2 °F 38% 29.85 in 10.0 mi WNW 12.7 mph - N/A   Clear
4:55 PM 55.4 °F - 30.2 °F 38% 29.84 in 10.0 mi WNW 16.1 mph - N/A   Clear
5:15 PM 53.6 °F - 28.4 °F 38% 29.84 in 10.0 mi WNW 12.7 mph - N/A   Clear
5:35 PM 53.6 °F - 32.0 °F 44% 29.83 in 10.0 mi WNW 6.9 mph - N/A   Clear
5:55 PM 51.8 °F - 32.0 °F 47% 29.83 in 10.0 mi WNW 6.9 mph - N/A   Partly Cloudy
6:15 PM 50.0 °F - 32.0 °F 50% 29.83 in 10.0 mi West 5.8 mph - N/A   Mostly Cloudy
6:55 PM 50.0 °F - 32.0 °F 50% 29.81 in 10.0 mi SSW 5.8 mph - N/A   Overcast
7:15 PM 50.0 °F - 32.0 °F 50% 29.81 in 10.0 mi SW 5.8 mph - N/A   Overcast
7:35 PM 50.0 °F - 33.8 °F 54% 29.81 in 10.0 mi WSW 9.2 mph - N/A   Overcast
7:55 PM 50.0 °F - 32.0 °F 50% 29.80 in 10.0 mi WSW 8.1 mph - N/A   Overcast
8:15 PM 50.0 °F - 32.0 °F 50% 29.79 in 10.0 mi WSW 10.4 mph - N/A   Overcast
8:35 PM 50.0 °F - 33.8 °F 54% 29.78 in 10.0 mi SW 11.5 mph - N/A   Overcast
8:55 PM 50.0 °F - 33.8 °F 54% 29.76 in 10.0 mi SW 10.4 mph - N/A   Overcast
9:15 PM 51.8 °F - 33.8 °F 50% 29.76 in 10.0 mi SW 11.5 mph - N/A   Overcast
9:35 PM 50.0 °F - 33.8 °F 54% 29.75 in 10.0 mi WSW 12.7 mph - N/A   Overcast
9:55 PM 50.0 °F - 33.8 °F 54% 29.75 in 10.0 mi WSW 11.5 mph - N/A   Overcast
10:15 PM 51.8 °F - 33.8 °F 50% 29.74 in 10.0 mi West 11.5 mph - N/A   Overcast
10:35 PM 53.6 °F - 32.0 °F 44% 29.74 in 10.0 mi West 12.7 mph - N/A   Overcast
10:55 PM 53.6 °F - 32.0 °F 44% 29.73 in 10.0 mi WSW 12.7 mph - N/A   Overcast
11:15 PM 51.8 °F - 32.0 °F 47% 29.72 in 10.0 mi WSW 13.8 mph - N/A   Overcast
11:35 PM 51.8 °F - 32.0 °F 47% 29.71 in 10.0 mi WSW 12.7 mph - N/A   Overcast
11:55 PM 51.8 °F - 32.0 °F 47% 29.70 in 10.0 mi WSW 11.5 mph - N/A   Overcast